Year,Month,Day,Hour,Minute,Value (Times are PST for temperature in C)
2017,12,04,00,00,-0.30
2017,12,04,00,01,-0.30
2017,12,04,00,02,-0.30
2017,12,04,00,03,-0.40
2017,12,04,00,04,-0.40
2017,12,04,00,05,-0.40
2017,12,04,00,06,-0.40
2017,12,04,00,07,-0.40
2017,12,04,00,08,-0.40
2017,12,04,00,09,-0.50
2017,12,04,00,10,-0.50
2017,12,04,00,11,-0.50
2017,12,04,00,12,-0.50
2017,12,04,00,13,-0.50
2017,12,04,00,14,-0.50
2017,12,04,00,15,-0.40
2017,12,04,00,16,-0.40
2017,12,04,00,17,-0.40
2017,12,04,00,18,-0.40
2017,12,04,00,19,-0.40
2017,12,04,00,20,-0.40
2017,12,04,00,21,-0.30
2017,12,04,00,22,-0.30
2017,12,04,00,23,-0.30
2017,12,04,00,24,-0.30
2017,12,04,00,25,-0.30
2017,12,04,00,26,-0.30
2017,12,04,00,27,-0.30
2017,12,04,00,28,-0.30
2017,12,04,00,29,-0.30
2017,12,04,00,30,-0.30
2017,12,04,00,31,-0.30
2017,12,04,00,32,-0.20
2017,12,04,00,33,-0.20
2017,12,04,00,34,-0.20
2017,12,04,00,35,-0.20
2017,12,04,00,36,-0.20
2017,12,04,00,37,-0.20
2017,12,04,00,38,-0.20
2017,12,04,00,39,-0.20
2017,12,04,00,40,-0.20
2017,12,04,00,41,-0.20
2017,12,04,00,42,-0.20
2017,12,04,00,43,-0.20
2017,12,04,00,44,-0.20
2017,12,04,00,45,-0.20
2017,12,04,00,46,-0.20
2017,12,04,00,47,-0.20
2017,12,04,00,48,-0.20
2017,12,04,00,49,-0.10
2017,12,04,00,50,-0.10
2017,12,04,00,51,-0.10
2017,12,04,00,52,-0.20
2017,12,04,00,53,-0.20
2017,12,04,00,54,-0.20
2017,12,04,00,55,-0.20
2017,12,04,00,56,-0.20
2017,12,04,00,57,-0.20
2017,12,04,00,58,-0.30
2017,12,04,00,59,-0.30
2017,12,04,01,00,-0.30
2017,12,04,01,01,-0.30
2017,12,04,01,02,-0.30
2017,12,04,01,03,-0.30
2017,12,04,01,04,-0.30
2017,12,04,01,05,-0.30
2017,12,04,01,06,-0.20
2017,12,04,01,07,-0.20
2017,12,04,01,08,-0.20
2017,12,04,01,09,-0.20
2017,12,04,01,10,-0.10
2017,12,04,01,11,-0.10
2017,12,04,01,12,-0.10
2017,12,04,01,13,-0.10
2017,12,04,01,14,-0.10
2017,12,04,01,15,-0.10
2017,12,04,01,16,-0.10
2017,12,04,01,17,-0.10
2017,12,04,01,18,-0.10
2017,12,04,01,19,-0.10
2017,12,04,01,20,-0.10
2017,12,04,01,21,-0.10
2017,12,04,01,22,-0.10
2017,12,04,01,23,-0.10
2017,12,04,01,24,-0.20
2017,12,04,01,25,-0.20
2017,12,04,01,26,-0.20
2017,12,04,01,27,-0.20
2017,12,04,01,28,-0.20
2017,12,04,01,29,-0.20
2017,12,04,01,30,-0.20
2017,12,04,01,31,-0.30
2017,12,04,01,32,-0.30
2017,12,04,01,33,-0.30
2017,12,04,01,34,-0.30
2017,12,04,01,35,-0.30
2017,12,04,01,36,-0.30
2017,12,04,01,37,-0.30
2017,12,04,01,38,-0.30
2017,12,04,01,39,-0.40
2017,12,04,01,40,-0.40
2017,12,04,01,41,-0.40
2017,12,04,01,42,-0.40
2017,12,04,01,43,-0.40
2017,12,04,01,44,-0.40
2017,12,04,01,45,-0.40
2017,12,04,01,46,-0.50
2017,12,04,01,47,-0.50
2017,12,04,01,48,-0.50
2017,12,04,01,49,-0.50
2017,12,04,01,50,-0.50
2017,12,04,01,51,-0.60
2017,12,04,01,52,-0.60
2017,12,04,01,53,-0.60
2017,12,04,01,54,-0.60
2017,12,04,01,55,-0.60
2017,12,04,01,56,-0.60
2017,12,04,01,57,-0.60
2017,12,04,01,58,-0.60
2017,12,04,01,59,-0.60
2017,12,04,02,00,-0.60
2017,12,04,02,01,-0.60
2017,12,04,02,02,-0.60
2017,12,04,02,03,-0.60
2017,12,04,02,04,-0.60
2017,12,04,02,05,-0.60
2017,12,04,02,06,-0.60
2017,12,04,02,07,-0.70
2017,12,04,02,08,-0.70
2017,12,04,02,09,-0.70
2017,12,04,02,10,-0.70
2017,12,04,02,11,-0.70
2017,12,04,02,12,-0.70
2017,12,04,02,13,-0.70
2017,12,04,02,14,-0.70
2017,12,04,02,15,-0.70
2017,12,04,02,16,-0.70
2017,12,04,02,17,-0.70
2017,12,04,02,18,-0.70
2017,12,04,02,19,-0.70
2017,12,04,02,20,-0.70
2017,12,04,02,21,-0.80
2017,12,04,02,22,-0.80
2017,12,04,02,23,-0.80
2017,12,04,02,24,-0.80
2017,12,04,02,25,-0.80
2017,12,04,02,26,-0.80
2017,12,04,02,27,-0.80
2017,12,04,02,28,-0.90
2017,12,04,02,29,-0.90
2017,12,04,02,30,-0.90
2017,12,04,02,31,-0.90
2017,12,04,02,32,-0.90
2017,12,04,02,33,-0.90
2017,12,04,02,34,-1.00
2017,12,04,02,35,-1.00
2017,12,04,02,36,-1.00
2017,12,04,02,37,-1.00
2017,12,04,02,38,-1.00
2017,12,04,02,39,-1.00
2017,12,04,02,40,-1.00
2017,12,04,02,41,-1.00
2017,12,04,02,42,-1.00
2017,12,04,02,43,-1.00
2017,12,04,02,44,-1.00
2017,12,04,02,45,-0.90
2017,12,04,02,46,-0.90
2017,12,04,02,47,-0.90
2017,12,04,02,48,-0.90
2017,12,04,02,49,-0.90
2017,12,04,02,50,-0.90
2017,12,04,02,51,-0.90
2017,12,04,02,52,-0.90
2017,12,04,02,53,-0.80
2017,12,04,02,54,-0.80
2017,12,04,02,55,-0.80
2017,12,04,02,56,-0.80
2017,12,04,02,57,-0.80
2017,12,04,02,58,-0.80
2017,12,04,02,59,-0.80
2017,12,04,03,00,-0.80
2017,12,04,03,01,-0.80
2017,12,04,03,02,-0.80
2017,12,04,03,03,-0.80
2017,12,04,03,04,-0.80
2017,12,04,03,05,-0.80
2017,12,04,03,06,-0.80
2017,12,04,03,07,-0.80
2017,12,04,03,08,-0.80
2017,12,04,03,09,-0.70
2017,12,04,03,10,-0.70
2017,12,04,03,11,-0.70
2017,12,04,03,12,-0.70
2017,12,04,03,13,-0.70
2017,12,04,03,14,-0.70
2017,12,04,03,15,-0.60
2017,12,04,03,16,-0.60
2017,12,04,03,17,-0.60
2017,12,04,03,18,-0.60
2017,12,04,03,19,-0.60
2017,12,04,03,20,-0.60
2017,12,04,03,21,-0.60
2017,12,04,03,22,-0.60
2017,12,04,03,23,-0.60
2017,12,04,03,24,-0.60
2017,12,04,03,25,-0.60
2017,12,04,03,26,-0.60
2017,12,04,03,27,-0.60
2017,12,04,03,28,-0.60
2017,12,04,03,29,-0.60
2017,12,04,03,30,-0.60
2017,12,04,03,31,-0.60
2017,12,04,03,32,-0.60
2017,12,04,03,33,-0.60
2017,12,04,03,34,-0.60
2017,12,04,03,35,-0.60
2017,12,04,03,36,-0.60
2017,12,04,03,37,-0.60
2017,12,04,03,38,-0.60
2017,12,04,03,39,-0.60
2017,12,04,03,40,-0.60
2017,12,04,03,41,-0.60
2017,12,04,03,42,-0.60
2017,12,04,03,43,-0.60
2017,12,04,03,44,-0.60
2017,12,04,03,45,-0.60
2017,12,04,03,46,-0.60
2017,12,04,03,47,-0.60
2017,12,04,03,48,-0.60
2017,12,04,03,49,-0.60
2017,12,04,03,50,-0.60
2017,12,04,03,51,-0.60
2017,12,04,03,52,-0.70
2017,12,04,03,53,-0.70
2017,12,04,03,54,-0.70
2017,12,04,03,55,-0.70
2017,12,04,03,56,-0.70
2017,12,04,03,57,-0.70
2017,12,04,03,58,-0.70
2017,12,04,03,59,-0.70
2017,12,04,04,00,-0.70
2017,12,04,04,01,-0.80
2017,12,04,04,02,-0.80
2017,12,04,04,03,-0.80
2017,12,04,04,04,-0.80
2017,12,04,04,05,-0.80
2017,12,04,04,06,-0.80
2017,12,04,04,07,-0.80
2017,12,04,04,08,-0.80
2017,12,04,04,09,-0.80
2017,12,04,04,10,-0.80
2017,12,04,04,11,-0.80
2017,12,04,04,12,-0.90
2017,12,04,04,13,-0.90
2017,12,04,04,14,-0.90
2017,12,04,04,15,-0.90
2017,12,04,04,16,-0.90
2017,12,04,04,17,-0.90
2017,12,04,04,18,-0.90
2017,12,04,04,19,-0.90
2017,12,04,04,20,-0.90
2017,12,04,04,21,-0.90
2017,12,04,04,22,-0.90
2017,12,04,04,23,-0.90
2017,12,04,04,24,-0.90
2017,12,04,04,25,-0.90
2017,12,04,04,26,-0.90
2017,12,04,04,27,-0.90
2017,12,04,04,28,-0.90
2017,12,04,04,29,-0.90
2017,12,04,04,30,-0.90
2017,12,04,04,31,-0.90
2017,12,04,04,32,-0.90
